Regional Weather Roundup
Issued by NWS Upton, NY

Home | Current Version | Previous Version | Text Only | Print | Product List | Glossary On
Versions: 1 2 3 4 5 6 7 8 9 10 11 12 13 14 15 16 17 18 19 20 21 22 23 24 25 26 27 28 29 30 31 32 33 34 35 36 37 38 39 40 41 42 43 44 45 46 47 48 49 50
000
ASUS41 KOKX 260708
RWROKX

REGIONAL WEATHER ROUNDUP
NATIONAL WEATHER SERVICE NEW YORK NY
300 AM EDT MON SEP 26 2016

NOTE: "FAIR" INDICATES FEW OR NO CLOUDS BELOW 12,000 FEET WITH NO
SIGNIFICANT WEATHER AND/OR OBSTRUCTIONS TO VISIBILITY.

NYZ071-072-176-178-NJZ106-104-260800-
NEW YORK CITY METRO AREA

CITY           SKY/WX    TMP DP  RH WIND       PRES   REMARKS
Central Park   CLEAR     58  40  51 CALM      30.21F
LaGuardia APRT PTCLDY    62  44  51 NE5       30.17F
Kennedy INTL   PTCLDY    53  44  71 E3        30.19F
Newark/Liberty PTCLDY    54  44  69 N6        30.18F
Bronx Bot Gard   N/A     52  37  58 NE2       30.21S
Wall St Helipt SUNNY     64  46  52 E5        30.19F
Teterboro      CLEAR     52  44  74 N6        30.18F
$$

NYZ177-179-078>081-260800-
LONG ISLAND NEW YORK

CITY           SKY/WX    TMP DP  RH WIND       PRES   REMARKS
Farmingdale    CLEAR     52  42  69 N3        30.19F
MacArthur/ISP  CLEAR     48  41  76 CALM      30.18F
Shirley        CLEAR     42  41  96 CALM      30.19F
Riverhead      NOT AVBL
Westhampton    CLEAR     37  34  89 NE5       30.21F WCI  33
Southampton      N/A     52  41  66 NE3       30.16S
Bridgehampton    N/A     50  43  76 CALM      30.05F
East Hampton   FAIR      42  40  93 CALM      30.19S
Montauk          N/A     57  41  55 NE7       30.20F
$$

NYZ052-065-067-260800-
HUDSON VALLEY

CITY           SKY/WX    TMP DP  RH WIND       PRES   REMARKS
White Plains   CLEAR     50  40  68 W5        30.18F
Newburgh       CLEAR     45  43  93 CALM      30.21F
Montgomery     CLEAR     40  37  89 CALM      30.20F
Poughkeepsie   CLEAR     37  36  96 CALM      30.20F
Albany         PTCLDY    42  39  89 CALM      30.22S
$$

NJZ001-105-106-008-010-013-015-019>022-104-260800-
NEW JERSEY

CITY           SKY/WX    TMP DP  RH WIND       PRES   REMARKS
Newark/Liberty PTCLDY    54  44  69 N6        30.18F
Teterboro      CLEAR     52  44  74 N6        30.18F
Caldwell       CLEAR     49  45  86 CALM      30.20F
Morristown     CLEAR     39  39 100 CALM      30.19F
Somerville     CLEAR     43  41  93 NW3       30.17F
Linden         NOT AVBL
Sussex         CLEAR     39  39 100 CALM      30.21S
Abdover          N/A     44  42  93 CALM      30.19F
Trenton        CLEAR     49  46  90 N3        30.17F
Millville      CLEAR     47  47 100 CALM      30.17F
Atlantic City  CLEAR     48  45  89 CALM      30.17F
Wrightstown    CLEAR     46  45  94 CALM      30.15F
Toms River     CLEAR     42  39  89 CALM      30.18F
Belmar         CLEAR     50  46  86 NW3       30.19F
$$

PAZ047>061-062-071-260800-
EASTERN PENNSYLVANIA

CITY           SKY/WX    TMP DP  RH WIND       PRES   REMARKS
Philadelphia   PTCLDY    56  47  71 CALM      30.17F
Allentown      CLEAR     44  40  85 N5        30.18F
Scranton       CLEAR     48  38  68 E12       30.17F
$$

CTZ002-004>006-009-010-012-RIZ004-006-007-MAZ004-011-015-260800-
SOUTHERN NEW ENGLAND
 IN CT

CITY           SKY/WX    TMP DP  RH WIND       PRES   REMARKS
Bradley INTL   CLEAR     40  37  89 CALM      30.22F
Hartford       CLEAR     43  43 100 CALM      30.22F
Danbury        CLEAR     38  37  97 CALM      30.21F
Wtrbury/Oxford   N/A     48  36  61 NE5       30.21F
Bridgeport     CLEAR     50  42  74 N7        30.20S
Meriden        CLEAR     44  39  82 CALM      30.21F
New Haven      CLEAR     46  39  76 N6        30.20F
Chester        FAIR      46  39  76 N5        30.21S
Groton         CLEAR     47  41  80 N6        30.20F
Wilimantic     CLEAR     39  38  96 CALM      30.23F

 IN RI

CITY           SKY/WX    TMP DP  RH WIND       PRES   REMARKS
Providence     CLEAR     45  37  73 NW5       30.21S
Block Island   CLEAR     55  43  63 N7        30.19F
Westerly       CLEAR     42  37  82 CALM      30.21S
 IN MA

CITY           SKY/WX    TMP DP  RH WIND       PRES   REMARKS
Boston         CLEAR     51  38  60 NW7       30.20F
Worcester      CLEAR     48  33  56 N6        30.20S
Westfield      CLEAR     37  36  96 CALM      30.22S
Provincetown   CLEAR     55  40  56 N7        30.19S
Nantucket      PTCLDY    49  43  80 N8        30.17S
$$

ANZ330-335-338-340-345-350-353-355-260800-
COASTAL MARINE OBSERVATIONS


STATION/POSITION TIME  SKY/WX   TEMP    WIND        PRES    VSBY  WAVE
                                AIR SEA DIR/SP/G                  HT/PER
                 (UTC)          (F)     (DEG/KT/KT) (MB)    (MI)  (FT/S)
NY HARB ENTRANCE 0650            66 71   70/  6/ 10 1021.8          2/10
20S FIRE ISLAND  0650            65 69   60/ 10/ 12 1021.5          2/10
GREAT SOUTH BAY  0630            62 70   50/  4/  6   N/A
23 SSW MONTAUK P 0650            63 68   60/ 10/ 12 1022.2          3/10
15 E BARNEGAT LI 0600               70                N/A           3/ 9
HUDSON CANYON    0550            66 69              1021.7          2/ 9
KINGS POINT      0636                               1022.1
EXECUTION ROCKS  0645            60      10/  6/  8   N/A
CENTRAL LI SOUND 0615            61 72   60/ 16/ 17   N/A           1
EASTERN LI SOUND NOT AVBL
ROBBINS REEF     0642                    90/  5/  7 1022.3
$$


>>>>>>>>>>>>>>>>>>>>>>>>>>>> KEY <<<<<<<<<<<<<<<<<<<<<<<<<<<
>                                                          <
>     SKY/WX - Sky Condition/Present Weather               <
>     TMP    - Temperature in Fahrenheit                   <
>     DP     - Dew Point in Fahrenheit                     <
>     RH     - Relative Humidity in Percent                <
>     WIND   - Direction (from) and Speed in MPH           <
>     PRES   - Mean Sea Level Pressure (inches of Hg)      <
>     WCI    - Wind Chill Index                            <
>     VSB    - VISIBILITY IN MILES                         <
>     HX     - HEAT INDEX                                  <
>     TC     - TEMPERATURE IN CELSIUS                      <
>     VRB    - VARIABLE WIND DIRECTION                     <
>                                                          <
>>>>>>>>>>>>>>>>>>>>>>>>>>>> KEY <<<<<<<<<<<<<<<<<<<<<<<<<<<



USA.gov is the U.S. government's official web portal to all federal, state and local government web resources and services.